Home   Weather   Annapolis County   Past weeks

Flag for Canada Past Weather in Annapolis County, Nova Scotia, Canada — Yesterday and Last 2 Weeks

Now
51 °F

Cool.


Feels Like: 51 °F
Forecast: 49 / 59 °F
Wind: 2 mph from Southwest

Location: Kejimkujik 1

Current Time: Apr 28, 2017 at 5:46:29 am

Latest Report: Apr 28, 2017 at 5:00 am


Visibility: N/A

Pressure: 30.01 "Hg

Humidity: 96%

Dew Point: 50 °F

Location of Annapolis CountyLocation

Past Weather in Annapolis County — Graph

°F

Annapolis County Temperature Yesterday

Maximum temperature yesterday: 61 °F (at 1:00 pm)
Minimum temperature yesterday: 57 °F (at 12:00 am)
Average temperature yesterday: 59 °F

High & Low Weather Summary for the Past Weeks

 TemperatureHumidityPressure
High71 °F (Apr 16, 4:00 pm)100% (Apr 22, 10:00 pm)30.65 "Hg (Apr 22, 10:00 pm)
Low20 °F (Apr 19, 7:00 am)19% (Apr 19, 4:00 pm)29.57 "Hg (Apr 17, 2:00 am)
Average44 °F72%30.15 "Hg
* Reported Apr 13 4:00 am — Apr 28 4:00 am, Annapolis County, Weather by CustomWeather, © 2017

Note: Actual official high and low records may vary slightly from our data, if they occured in-between our weather recording intervals... More about our weather records

Advertising

Annapolis County Weather History for the Previous 24 Hours

Scroll right to see more
 ConditionsComfort  
Time TempWeatherWind HumidityBarometerVisibility
4:00 am
Fri, Apr 28
52 °FCool.3 mph96%30.01 "HgN/A
3:00 am53 °FCool.3 mph95%30.02 "HgN/A
2:00 am53 °FCool.5 mph96%30.01 "HgN/A
1:00 am53 °FCool.5 mph100%30.01 "HgN/A
12:00 am55 °FCool.7 mph96%30.01 "HgN/A
11:00 pm
Thu, Apr 27
57 °FCool.6 mph96%30.01 "HgN/A
10:00 pm57 °FCool.7 mph96%30.02 "HgN/A
9:00 pm57 °FCool.6 mph96%30.03 "HgN/A
8:00 pm58 °FCool.6 mph96%30.02 "HgN/A
7:00 pm59 °FCool.9 mph95%30.03 "HgN/A
6:00 pm59 °FCool.8 mph94%30.03 "HgN/A
5:00 pm60 °FCool.8 mph89%30.03 "HgN/A
4:00 pm60 °FCool.7 mph88%30.04 "HgN/A
3:00 pm60 °FCool.6 mph94%30.06 "HgN/A
2:00 pm60 °FCool.6 mph93%30.06 "HgN/A
1:00 pm61 °FCool.6 mph94%30.06 "HgN/A
12:00 pm60 °FCool.7 mph94%30.08 "HgN/A
11:00 am60 °FCool.7 mph94%30.08 "HgN/A
10:00 am59 °FCool.6 mph94%30.07 "HgN/A
9:00 am59 °FCool.8 mph95%30.06 "HgN/A
8:00 am58 °FCool.7 mph95%30.06 "HgN/A
7:00 am58 °FCool.8 mph95%30.05 "HgN/A
6:00 am58 °FCool.8 mph95%30.04 "HgN/A
5:00 am58 °FCool.8 mph95%30.04 "HgN/A
Weather by CustomWeather, © 2017

See weather overviewHow to use our weather pages